This is the latest recevied weather packets stored in our database for station/object KB2SKP. If no packets are shown the sender has not sent any weather packets the latest 1 day(s).
| Time | Temp. | Humidity | Pressure | Rain* | Wind** | Luminosity | Snow |
|---|---|---|---|---|---|---|---|
| 1778082909 | 16.67° C | 91% | 1007.8 hPa | 2.29 mm | - | 32 W/m² | - |
| 1778081498 | 17.22° C | 87% | 1008 hPa | 0 mm | - | 70 W/m² | - |
| 1778080591 | 17.78° C | 85% | 1008.2 hPa | 0 mm | - | 36 W/m² | - |
| 1778079984 | 17.78° C | 84% | 1008.3 hPa | 0 mm | - | 51 W/m² | - |
| 1778079075 | 17.78° C | 84% | 1008.2 hPa | 0 mm | - | 73 W/m² | - |
| 1778078772 | 17.78° C | 85% | 1008 hPa | 0 mm | - | 76 W/m² | - |
| 1778078469 | 17.78° C | 85% | 1008.2 hPa | 0 mm | - | 61 W/m² | - |
| 1778078167 | 17.78° C | 84% | 1008.1 hPa | 0 mm | - | 73 W/m² | - |
| 1778076353 | 18.89° C | 74% | 1008 hPa | 0 mm | - | 41 W/m² | - |
| 1778075140 | 19.44° C | 71% | 1008.3 hPa | 0 mm | - | 49 W/m² | - |
| 1778074533 | 19.44° C | 71% | 1008 hPa | 0 mm | - | 55 W/m² | - |
| 1778074230 | 19.44° C | 70% | 1008 hPa | 0 mm | - | 63 W/m² | - |
| 1778073018 | 19.44° C | 71% | 1007.8 hPa | 0 mm | - | 55 W/m² | - |
| 1778070901 | 18.89° C | 72% | 1007.4 hPa | 0 mm | - | 63 W/m² | - |
| 1778069387 | 18.33° C | 73% | 1008.2 hPa | 0 mm | - | 60 W/m² | - |
| 1778068178 | 18.33° C | 72% | 1008.3 hPa | 0 mm | - | 40 W/m² | - |
| 1778067875 | 18.33° C | 72% | 1008.2 hPa | 0 mm | - | 31 W/m² | - |
| 1778067271 | 18.33° C | 72% | 1008 hPa | 0 mm | - | 46 W/m² | - |
| 1778066967 | 18.33° C | 72% | 1008.1 hPa | 0 mm | - | 40 W/m² | - |
| 1778066665 | 18.33° C | 72% | 1008 hPa | 0 mm | - | 31 W/m² | - |
| 1778066362 | 18.33° C | 72% | 1007.9 hPa | 0 mm | - | 35 W/m² | - |
| 1778065757 | 17.78° C | 73% | 1007.8 hPa | 0 mm | - | 30 W/m² | - |
| 1778065151 | 17.78° C | 73% | 1007.8 hPa | 0 mm | - | 21 W/m² | - |
| 1778062729 | 17.78° C | 74% | 1007.6 hPa | 0 mm | - | 5 W/m² | - |
| 1778062425 | 17.78° C | 74% | 1007.7 hPa | 0 mm | - | 3 W/m² | - |
* Rain latest hour (hover to see other rain measurements)
** Current wind speed in m/s (hover to see current wind gust speed)